{"data":{"norad_id":57144,"epoch":"2026-09-20T15:41:40.303680Z","epoch_age_seconds":107642,"freshness":"FRESH","line1":"1 57144U 23090AV  26263.65393870 -.00000200  00000+0  22508-5 0  9999","line2":"2 57144  43.0031 242.0320 0000826 304.7076  55.3697 15.27573639180170","mean_motion":15.27573639,"eccentricity":8.26e-5,"inclination_deg":43.0031,"raan_deg":242.032,"arg_perigee_deg":304.7076,"mean_anomaly_deg":55.3697,"bstar":2.2508e-6,"rev_number":18017,"period_min":94.267141251709,"perigee_km":482.50140768327,"apogee_km":483.63487877294,"semimajor_km":6861.2051432281,"source":"CELESTRAK","updated_at":"2026-09-21T09:00:33.566964Z"}}